Flag for Germany Weather past 2 weeks in Offenburg, Baden-Württemberg, Germany

Now
70 °F

Passing clouds.


Feels Like: 70 °F
Forecast: 54 / 71 °F
Wind: 9 mph from Southwest

Location: Lahr - CAN-AFB

Current Time: May 28, 2015 at 3:17:58 PM

Latest Report: May 28, 2015 at 2:50 PM


Visibility: N/A

Pressure: 30.04 "Hg

Humidity: 40%

Dew point: 45 °F

Location of OffenburgLocation

Historic Weather in Offenburg — Graph

°F

Offenburg temperature yesterday

Maximum temperature yesterday: 63 °F (at 3:50 PM)
Minimum temperature yesterday: 48 °F (at 7:50 AM)
Average temperature yesterday: 58 °F

Past Weeks' High & Low Weather Summary

 TemperatureHumidityPressure
High75 °F (May 13, 5:20 PM)100% (May 16, 8:50 AM)30.33 "Hg (May 16, 8:50 AM)
Low46 °F (May 18, 6:20 AM)32% (May 22, 4:50 PM)29.74 "Hg (May 18, 6:20 PM)
Average60 °F61%30.07 "Hg
* Reported May 13 1:20 PM — May 28 1:50 PM, Offenburg, Weather by CustomWeather, © 2015

Note: Actual official high and low records may vary slightly from our data, if they occured in-between our weather recording intervals... More about our weather records

Advertising

Offenburg weather history for previous 24 hours

 ConditionsComfort  
Time TempWeatherWind HumidityBarometerVisibility
1:50 PM
Thu, May 28
68 °FPassing clouds.9 mph43%30.04 "HgN/A
1:20 PM68 °FPassing clouds.8 mph40%30.07 "HgN/A
12:50 PM66 °FSunny.6 mph46%30.07 "Hg10 mi
12:20 PM64 °FPassing clouds.7 mph43%30.07 "HgN/A
11:50 AM64 °FPassing clouds.7 mph46%30.07 "HgN/A
11:20 AM63 °FPassing clouds.8 mph49%30.09 "HgN/A
10:50 AM61 °FPassing clouds.10 mph55%30.09 "HgN/A
10:20 AM61 °FSunny.9 mph55%30.09 "Hg10 mi
9:50 AM59 °FPassing clouds.10 mph59%30.12 "HgN/A
9:20 AM57 °FPassing clouds.9 mph63%30.12 "HgN/A
8:50 AM55 °FPassing clouds.6 mph63%30.12 "HgN/A
8:20 AM52 °FSunny.7 mph72%30.12 "Hg10 mi
7:50 AM50 °FSunny.3 mph71%30.12 "Hg10 mi
7:50 PM
Wed, May 27
59 °FSunny.7 mph51%30.18 "Hg10 mi
7:20 PM61 °FPassing clouds.8 mph45%30.18 "HgN/A
6:50 PM63 °FSunny.7 mph42%30.18 "Hg10 mi
6:20 PM63 °FSunny.7 mph42%30.18 "Hg10 mi
5:50 PM63 °FPassing clouds.6 mph39%30.18 "HgN/A
5:20 PM63 °FSunny.3 mph42%30.21 "Hg10 mi
4:50 PM63 °FPassing clouds.6 mph39%30.21 "HgN/A
4:20 PM63 °FSunny.3 mph42%30.21 "Hg10 mi
3:50 PM63 °FPassing clouds.6 mph42%30.21 "HgN/A
3:20 PM61 °FPassing clouds.7 mph45%30.24 "HgN/A
Weather by CustomWeather, © 2015

See weather overviewHow to use our weather pages